Regional Weather Roundup
Issued by NWS State College, PA

Home | Current Version | Previous Version | Text Only | Print | Product List | Glossary Off
Versions: 1 2 3 4 5 6 7 8 9 10 11 12 13 14 15 16 17 18 19 20 21 22 23 24 25 26 27 28 29 30 31 32 33 34 35 36 37 38 39 40 41 42 43 44 45 46 47 48 49 50

000
ASUS41 KCTP 241903
RWRCTP

REGIONAL WEATHER ROUNDUP
NATIONAL WEATHER SERVICE STATE COLLEGE PA
300 PM EDT FRI OCT 24 2014

Note: "fair" indicates few or no clouds below 12,000 feet with no
significant weather and/or obstructions to visibility.

* = STATION THAT DOES NOT REPORT PRECIPITATION /E.G. RAIN...SNOW...ETC/
    THUNDER OR FOG.

PAZ002>004-007>009-013>016-020>023-029>032-242000-
WESTERN PENNSYLVANIA

CITY           SKY/WX    TMP DP  RH WIND       PRES   REMARKS
ERIE           PTSUNNY   57  42  57 W10       30.03S
MEADVILLE      PTSUNNY   58  41  53 W9        30.01F
FRANKLIN*      PTSUNNY   57  39  51 W7        30.02F
NEW CASTLE       N/A     60  37  42 CALM      30.03F
BEAVER COUNTY  SUNNY     61  37  41 NW9       30.03F
BUTLER*        MOSUNNY   57  41  54 W8        30.04F
PITTSBURGH INT PTSUNNY   58  38  47 W9        30.03F
PITTSBURGH     MOSUNNY   57  37  47 W10       30.02F
INDIANA*       SUNNY     57  41  54 W8G18     30.04F
LATROBE        MOSUNNY  N/A N/A N/A NW12      30.04F
WASHINGTON CO* MOSUNNY   59  39  47 SW5       30.05F
$$

PAZ004>006-010>012-017>019-024>028-033>037-041-042-045-046-049>053-242000-
CENTRAL PENNSYLVANIA

CITY           SKY/WX    TMP DP  RH WIND       PRES   REMARKS
BRADFORD       MOSUNNY   56  31  38 NW12      29.97F
DUBOIS         SUNNY     56  36  47 W9        29.97F
CLEARFIELD     SUNNY     60  37  42 W9G20     29.97F
JOHNSTOWN      PTSUNNY   50  37  61 NW15      29.99F
ALTOONA        MOSUNNY   58  38  47 NW14      29.95F
STATE COLLEGE  SUNNY     61  37  41 W15       29.93F
WILLIAMSPORT   SUNNY     71  30  21 NW15G21   29.85F
SELINSGROVE    SUNNY     69  32  25 W10G18    29.87F
FT INDIANTOWN  SUNNY     67  40  37 W13G18    29.86F
CAPITAL CITY   MOSUNNY   67  31  26 NW12G22   29.87F
HARRISBURG     PTSUNNY   64  36  35 NW16      29.86F
YORK           PTSUNNY   65  34  31 NW14      29.88F
$$

PAZ038>040-043-044-047-048-054-055-060>062-067>071-242000-
EASTERN PENNSYLVANIA

CITY           SKY/WX    TMP DP  RH WIND       PRES   REMARKS
SCRANTON       SUNNY     64  42  44 W14G23    29.84F
MOUNT POCONO   SUNNY     60  40  47 NW17G29   29.82S
ALLENTOWN      SUNNY     68  42  38 NW14      29.81F
QUAKERTOWN*    CLEAR     68  45  42 W12       29.82S
READING        SUNNY     69  42  37 NW18      29.83F
LANCASTER      MOSUNNY   65  41  41 NW15G23   29.85F
COATESVILLE    PTCLDY    64  45  48 NW13      29.85S
POTTSTOWN      SUNNY     68  45  43 W12G20    29.82F
BLUE BELL      SUNNY     70  46  43 NW10G17   29.80F
DOYLESTOWN     SUNNY     67  43  41 NW13G23   29.79F
WILLOW GROVE   NOT AVBL
NORTH PHILA    SUNNY     70  41  34 NW16      29.81F
PHILADELPHIA   MOSUNNY   68  44  42 NW15G24   29.81F
$$



USA.gov is the U.S. government's official web portal to all federal, state and local government web resources and services.